Regional Weather Roundup
Issued by NWS Kansas City/Pleasant Hill, MO

Home | Current Version | Previous Version | Text Only | Print | Product List | Glossary On
Versions: 1 2 3 4 5 6 7 8 9 10 11 12 13 14 15 16 17 18 19 20 21 22 23 24 25 26 27 28 29 30 31 32 33 34 35 36 37 38 39 40 41 42 43 44 45 46 47 48 49 50
221
ASUS43 KEAX 240210
RWREAX

WEATHER ROUNDUP FOR EASTERN KANSAS AND NORTHWEST MISSOURI
NATIONAL WEATHER SERVICE KANSAS CITY/PLEASANT HILL MO
900 PM CDT SUN APR 23 2017

KSZ040-057-103>105-MOZ028-029-037-043-240300-
...KANSAS CITY METROPOLITAN AREA...

CITY           SKY/WX    TMP DP  RH WIND       PRES   REMARKS
K.C. INTL      PTCLDY    56  36  47 S7        29.98F
K.C. DOWNTOWN  PTCLDY    62  33  33 S7        29.98F
LEES SUMMIT    CLEAR     62  36  37 S7        30.00F
OLATHE - IXD   CLOUDY    56  36  47 SE6       30.00S
OLATHE - OJC   PTCLDY    57  40  52 SE5       29.99F
LAWRENCE       PTCLDY    59  38  45 S7        29.98F

$$

MOZ001>008-011>017-020>025-030>033-038>040-044>046-053-054-240300-
...NORTHERN AND CENTRAL MISSOURI...

CITY           SKY/WX    TMP DP  RH WIND       PRES   REMARKS
ST. JOSEPH     CLOUDY    57  37  47 MISG      29.98S
MOSBY          CLOUDY    61  32  33 CALM      29.99F
WHITEMAN AFB   CLOUDY    60  34  37 CALM      30.00R
CLINTON        PTCLDY    55  41  58 CALM      30.01S
SEDALIA        NOT AVBL
WARSAW         NOT AVBL
CHILLICOTHE      N/A     54  41  61 CALM      30.01S
KIRKSVILLE     CLOUDY    60  29  30 SE5       30.01S

$$

MOZ041-047>049-056>058-063>065-088>090-097-240300-
...EASTERN AND SOUTHERN MISSOURI...

CITY           SKY/WX    TMP DP  RH WIND       PRES   REMARKS
ST. LOUIS INTL CLEAR     64  30  27 CALM      30.00S
SPIRIT OF STL  PTCLDY    53  39  59 W5        29.99S
COLUMBIA       CLEAR     64  28  25 CALM      30.01F
JEFFERSON CITY CLEAR     58  35  42 CALM      30.00S
ROLLA          CLEAR     48  40  73 CALM      30.00F
SPRINGFIELD    CLEAR     52  40  63 CALM      30.01F
BRANSON        PTCLDY    59  36  41 CALM      30.02F
JOPLIN         CLEAR     53  43  68 CALM      30.01F
WEST PLAINS    CLEAR     58  31  35 CALM      30.01S

$$

IAZ060-094-KSZ022-034>040-054-083-096-NEZ052-066-093-240300-
...KANSAS...SOUTHEAST NEBRASKA AND IOWA...

CITY           SKY/WX    TMP DP  RH WIND       PRES   REMARKS
TOPEKA         MOCLDY    61  38  42 S5        29.98S
MANHATTAN      PTCLDY    55  39  54 SW3       29.96S
EMPORIA        PTCLDY    55  42  61 S6        29.99S
CHANUTE        CLEAR     53  43  68 SE6       29.99F
WICHITA        CLOUDY    55  42  61 S8        29.98S
OMAHA          PTCLDY    66  27  23 S13       29.91S
LINCOLN        CLOUDY    57  31  37 S10       29.91F
FALLS CITY     CLOUDY    61  33  35 S8        29.95S
LAMONI         PTCLDY    61  32  33 S7        29.98S
DES MOINES     MOCLDY    61  33  35 S7        29.97S

$$





USA.gov is the U.S. government's official web portal to all federal, state and local government web resources and services.